Location: Unspecified
(0.0000°N, 0.0000°E)
Time: 00:15:21
(UTC+00:00)

Courier 1B Rocket - Visible Passes

Search period start: 16 September 2019 00:00
Search period end: 26 September 2019 00:00
Orbit: 920 x 1202 km, 28.2° (Epoch: 15 September)

Date Brightness Start Highest point End Pass type
(mag) Time Alt. Az. Time Alt. Az. Time Alt. Az.
16 Sep 7.1 03:40:00 15° S 03:40:00 15° S 03:41:55 10° SSE visible
21 Sep 7.1 19:35:08 10° N 19:35:58 10° NNE 19:35:58 10° NNE visible
22 Sep 7.2 20:24:13 10° NNW 20:25:12 13° NNW 20:25:12 13° NNW visible
23 Sep 6.7 19:23:58 10° NNW 19:28:02 17° NNE 19:28:05 17° NNE visible
24 Sep 7.0 18:24:16 10° N 18:26:33 12° NNE 18:28:46 10° NE visible
24 Sep 6.7 20:14:46 10° NW 20:17:25 23° NNW 20:17:25 23° NNW visible
25 Sep 6.1 19:14:07 10° NNW 19:19:38 26° NNE 19:20:26 25° NE visible
25 Sep 7.7 21:06:43 10° WNW 21:06:50 11° WNW 21:06:50 11° WNW visible
